Colorado Springs, CO

10:42 AM MDT on August 20, 2017 (GMT -0600)
City Of Colorado Springs Municipal

Weather History for KCOS - November, 2011

Change the Weather History Date:

Monday, November 7, 2011

  Actual Average Record
Temperature  
Mean Temperature 36 °F 42 °F  
Max Temperature 47 °F 55 °F 77 °F (1980)
Min Temperature 25 °F 29 °F 5 °F (1938)
Degree Days  
Heating Degree Days 29 23  
Month to date heating degree days 192 154  
Since 1 July heating degree days 747 828  
Cooling Degree Days 0 0  
Month to date cooling degree days 0 0  
Year to date cooling degree days 841 455  
Moisture  
Dew Point 20 °F    
Average Humidity 52    
Maximum Humidity 70    
Minimum Humidity 33    
Precipitation  
Precipitation 0.00 in 0.02 in 0.38 in (1929)
Month to date precipitation 0.18 0.11  
Year to date precipitation 15.77 15.91  
Snow  
Snow 0.00 in 0.10 in 3.00 in (1929)
Month to date snowfall 1.0 0.9  
Since 1 July snowfall 4.6 4.0  
Since 1 September snowfall 4.6 4.0  
Snow Depth 0.00 in    
Sea Level Pressure  
Sea Level Pressure 30.02 in    
Wind  
Wind Speed 11 mph (North)    
Max Wind Speed 20 mph    
Max Gust Speed 26 mph    
Visibility 10 miles    
Events      
T = Trace of Precipitation, MM = Missing Value Source: NWS Daily Summary

Daily Weather History Graph

Daily Weather History Graph

Search for Another Location

Airport or City:

Trip Planner

Search our weather history database for the weather conditions in past years. The results will help you decide how hot, cold, wet, or windy it might be!

Date:

Astronomy

Nov. 07, 2011 Rise Set
Actual Time 6:32 AM MST 4:52 PM MST
Civil Twilight 6:04 AM MST 5:20 PM MST
Nautical Twilight 5:32 AM MST 5:51 PM MST
Astronomical Twilight 5:01 AM MST 6:23 PM MST
Moon 3:03 PM MST (11/7) 3:38 AM MST (11/7)
Length of Visible Light 11h 15m
Length of Day
10h 20m
Waxing Gibbous, 92% of the Moon is Illuminated
Nov 7
Waxing Gibbous
Nov 10
Full
Nov 18
Last Quarter
Nov 24
New
Dec 2
First Quarter

Hourly Weather History & Observations

Time (MST) Temp. Windchill Dew Point Humidity Pressure Visibility Wind Dir Wind Speed Gust Speed Precip Events Conditions
12:54 AM 28.0 °F 19.3 °F 19.0 °F 69% 30.00 in 10.0 mi NNE 9.2 mph - N/A   Mostly Cloudy
1:54 AM 28.0 °F 18.1 °F 19.9 °F 72% 30.00 in 10.0 mi NNE 11.5 mph - N/A   Mostly Cloudy
2:54 AM 30.0 °F 22.4 °F 19.0 °F 64% 29.98 in 10.0 mi North 8.1 mph - N/A   Mostly Cloudy
3:54 AM 28.4 °F 22.2 °F 19.4 °F 69% 29.98 in 10.0 mi NE 5.8 mph - N/A   Mostly Cloudy
4:54 AM 30.2 °F 24.3 °F 17.6 °F 60% 29.97 in 10.0 mi NW 5.8 mph - N/A   Mostly Cloudy
5:54 AM 30.0 °F 23.2 °F 17.1 °F 59% 30.04 in 10.0 mi WNW 6.9 mph - N/A   Mostly Cloudy
6:54 AM 32.0 °F 22.5 °F 16.0 °F 52% 30.07 in 10.0 mi NNW 12.7 mph - N/A   Mostly Cloudy
7:54 AM 33.8 °F 25.8 °F 15.8 °F 48% 30.02 in 10.0 mi NNW 10.4 mph - N/A   Mostly Cloudy
8:54 AM 37.0 °F 28.9 °F 16.0 °F 42% 30.06 in 10.0 mi NNW 12.7 mph - N/A   Mostly Cloudy
9:54 AM 41.0 °F 34.7 °F 17.1 °F 38% 30.04 in 10.0 mi NNW 10.4 mph - N/A   Mostly Cloudy
10:54 AM 44.1 °F 37.7 °F 18.0 °F 35% 30.03 in 10.0 mi NNW 12.7 mph - N/A   Scattered Clouds
11:54 AM 45.0 °F 40.1 °F 18.0 °F 34% 29.99 in 10.0 mi ENE 9.2 mph - N/A   Scattered Clouds
12:54 PM 45.0 °F 38.9 °F 18.0 °F 34% 29.97 in 10.0 mi ENE 12.7 mph - N/A   Scattered Clouds
1:54 PM 44.1 °F 37.4 °F 19.0 °F 37% 29.97 in 10.0 mi ENE 13.8 mph - N/A   Scattered Clouds
2:54 PM 44.1 °F 37.4 °F 21.0 °F 40% 29.97 in 10.0 mi ENE 13.8 mph - N/A   Scattered Clouds
3:54 PM 41.0 °F 34.3 °F 23.0 °F 49% 30.00 in 10.0 mi ENE 11.5 mph - N/A   Scattered Clouds
4:54 PM 39.0 °F 33.4 °F 24.1 °F 55% 30.02 in 10.0 mi ENE 8.1 mph - N/A   Scattered Clouds
5:54 PM 36.0 °F 29.6 °F 26.1 °F 67% 30.07 in 10.0 mi NNE 8.1 mph - N/A   Scattered Clouds
6:54 PM 35.6 °F 28.0 °F 26.6 °F 70% 30.01 in 10.0 mi NNW 10.4 mph - N/A   Overcast
7:54 PM 36.0 °F 31.1 °F 25.0 °F 64% 30.07 in 10.0 mi NNE 5.8 mph - N/A   Overcast
8:54 PM 35.1 °F 26.4 °F 24.1 °F 64% 30.06 in 8.0 mi North 12.7 mph - N/A   Overcast
9:54 PM 34.0 °F 24.2 °F 23.0 °F 64% 30.04 in 9.0 mi North 15.0 mph - N/A   Overcast
10:54 PM 33.1 °F 22.2 °F 24.1 °F 70% 30.01 in 7.0 mi North 17.3 mph - N/A   Overcast
11:54 PM 33.1 °F 21.9 °F 24.1 °F 70% 30.01 in 7.0 mi North 18.4 mph - N/A   Overcast